User: anonymous   Login
Location: Sun City Center
(27.6996°N, 82.3528°W)
Time: 09:44:53
(UTC-04:00)
Language:

Cosmos 2084 Rocket - Orbit

View from above orbital plane
View from above orbital plane
View from above satellite
View from above satellite

Ground track
Ground track

The orbit data is extracted from the following two-line orbital elements,

1 20666U 90055D   15146.18116029  .00000688  00000-0  81836-4 0  9996
2 20666 062.7841 140.4097 0099723 032.7377 327.9842 14.90851546348861
Epoch (UTC): 26 May 2015 04:20:52
Eccentricity: 0.0099723
inclination: 62.7841°
perigee height: 526 km
apogee height: 665 km
right ascension of ascending node: 140.4097°
argument of perigee: 32.7377°
revolutions per day: 14.90851546
mean anomaly at epoch: 327.9842°
orbit number at epoch: 34886

The dashed part of the orbit path shows where the satellite is in the earth's shadow,  

DLR